Location: Ernez
(36.4595°N, 29.8755°E)
Time: 08:30:31
(UTC+00:00)

Landsat 7 - Pass Details

Date: 13 November 2025
Orbit: 680 x 682 km, 97.9° (Epoch: 05 December)

Event Time Altitude Azimuth Distance (km) Brightness Sun altitude
Rises 15:19:06 0° 153° (SSE) 3,028 7.0 -5.7°
Reaches altitude 10° 15:21:23 10° 147° (SSE) 2,117 6.2 -6.1°
Maximum altitude 15:25:50 48° 74° (ENE) 886 4.0 -7.0°
Drops below altitude 10° 15:30:19 10° 360° (N) 2,129 6.1 -7.9°
Sets 15:32:37 0° 355° (N) 3,048 7.0 -8.3°
